User: anonymous   Login
Location: Caltech
(34.1382°N, 118.1253°W)
Time: 12:35:28
(UTC-08:00)
Language:

Cosmos 2333 Rocket - Orbit

View from above orbital plane
View from above orbital plane
View from above satellite
View from above satellite

Ground track
Ground track

The orbit data is extracted from the following two-line orbital elements,

1 24298U 96051B   17347.17882097 -.00000147  00000-0 -53020-4 0  9998
2 24298  70.8466  44.8906 0018585 272.7752  87.1241 14.12478526 97096
Epoch (UTC): 13 December 2017 04:17:30
Eccentricity: 0.0018585
inclination: 70.8466°
perigee height: 837 km
apogee height: 864 km
right ascension of ascending node: 44.8906°
argument of perigee: 272.7752°
revolutions per day: 14.12478526
mean anomaly at epoch: 87.1241°
orbit number at epoch: 9709

The dashed part of the orbit path shows where the satellite is in the earth's shadow,  

DLR